Location: Madrid
(40.4000°N, 3.6830°W)
Time: 15:00:37
(UTC+02:00)

ISS - Pass Details

Date: 31 March 2020
Orbit: 416 x 423 km, 51.6° (Epoch: 02 April)

Event Time Altitude Azimuth Distance (km) Brightness Sun altitude
Rises 23:20:22 0° 307° (NW) 2,361 1.3 -29.3°
Reaches altitude 10° 23:22:28 10° 309° (NW) 1,495 0.0 -29.6°
Enters shadow 23:23:13 16° 310° (NW) 1,197 -0.7 -29.7°
